When you browse on this site, cookies collect data to enhance your experience and personalize the content and advertising you see.
Visit our Privacy Policy to learn more. By continuing to use the site, you agree to this use of cookies and data.
  • In Portugal
  • List of Countries
  • For 7 days
  • Water Temperature
  • Satellite Maps
  • Weather Map
  • Weather Widgets
  • user-avatar
    Login

    Hourly Weather Klagenfurt

    Today, 17 July, Wednesday

    Time Temperature Precipitation Wind Pressure Humidity
    00:00 +13°C° 0 mm 1 mps 689 mmHg 82%
    01:00 +13°C° 0 mm 1 mps 689 mmHg 81%
    02:00 +13°C° 0 mm 1 mps 689 mmHg 82%
    03:00 +13°C° 0 mm 1 mps 689 mmHg 83%
    04:00 +12°C° 0 mm 1 mps 689 mmHg 85%
    05:00 +13°C° 0 mm 0 mps 689 mmHg 80%
    06:00 +15°C° 0 mm 0 mps 689 mmHg 75%
    07:00 +16°C° 0 mm 0 mps 690 mmHg 70%
    08:00 +19°C° 0 mm 0 mps 690 mmHg 63%
    09:00 +21°C° 0 mm 0 mps 690 mmHg 56%
    10:00 +25°C° 0 mm 1 mps 691 mmHg 49%
    11:00 +26°C° 0 mm 1 mps 690 mmHg 47%
    12:00 +26°C° 0 mm 1 mps 690 mmHg 45%
    13:00 +27°C° 0 mm 1 mps 690 mmHg 42%
    14:00 +27°C° 0 mm 1 mps 690 mmHg 43%
    15:00 +26°C° 0 mm 2 mps 690 mmHg 44%
    16:00 +26°C° 0 mm 2 mps 689 mmHg 45%
    17:00 +24°C° 0.1 mm 2 mps 689 mmHg 56%
    18:00 +21°C° 0.1 mm 2 mps 688 mmHg 67%
    19:00 +20°C° 0.1 mm 1 mps 688 mmHg 78%
    20:00 +19°C° 0.3 mm 1 mps 688 mmHg 82%
    21:00 +18°C° 0.3 mm 1 mps 688 mmHg 86%
    22:00 +15°C° 0.3 mm 1 mps 688 mmHg 89%
    23:00 +15°C° 0.1 mm 1 mps 688 mmHg 90%

    Tomorrow, 18 July, Thursday

    Time Temperature Precipitation Wind Pressure Humidity
    00:00 +14°C° 0.1 mm 1 mps 688 mmHg 90%
    01:00 +14°C° 0.1 mm 1 mps 688 mmHg 91%
    02:00 +14°C° 0 mm 1 mps 687 mmHg 91%
    03:00 +13°C° 0 mm 1 mps 687 mmHg 91%
    04:00 +13°C° 0 mm 1 mps 687 mmHg 92%
    05:00 +14°C° 0.1 mm 1 mps 687 mmHg 91%
    06:00 +14°C° 0.1 mm 0 mps 688 mmHg 91%
    07:00 +15°C° 0.1 mm 0 mps 688 mmHg 90%
    08:00 +17°C° 0.6 mm 0 mps 688 mmHg 85%
    09:00 +20°C° 0.6 mm 1 mps 689 mmHg 80%
    10:00 +22°C° 0.6 mm 1 mps 689 mmHg 74%
    11:00 +22°C° 1.4 mm 1 mps 689 mmHg 73%
    12:00 +23°C° 1.4 mm 1 mps 689 mmHg 72%
    13:00 +23°C° 1.4 mm 1 mps 689 mmHg 71%
    14:00 +23°C° 0.7 mm 1 mps 689 mmHg 73%
    15:00 +22°C° 0.7 mm 1 mps 689 mmHg 74%
    16:00 +22°C° 0.7 mm 1 mps 689 mmHg 76%
    17:00 +21°C° 0.6 mm 1 mps 689 mmHg 80%
    18:00 +20°C° 0.6 mm 1 mps 689 mmHg 85%
    19:00 +17°C° 0.6 mm 0 mps 688 mmHg 89%
    20:00 +16°C° 0.2 mm 0 mps 689 mmHg 90%
    21:00 +14°C° 0.2 mm 0 mps 689 mmHg 90%
    22:00 +14°C° 0.2 mm 1 mps 689 mmHg 91%
    23:00 +14°C° 0 mm 1 mps 689 mmHg 91%

    Day after tomorrow, 19 July, Friday

    Time Temperature Precipitation Wind Pressure Humidity
    00:00 +14°C° 0 mm 1 mps 689 mmHg 91%
    01:00 +13°C° 0 mm 1 mps 689 mmHg 91%
    02:00 +13°C° 0 mm 1 mps 689 mmHg 91%
    03:00 +13°C° 0 mm 1 mps 689 mmHg 91%
    04:00 +13°C° 0 mm 1 mps 689 mmHg 91%
    05:00 +14°C° 0 mm 1 mps 689 mmHg 90%
    06:00 +14°C° 0 mm 0 mps 690 mmHg 89%
    07:00 +15°C° 0 mm 0 mps 690 mmHg 88%
    08:00 +18°C° 0.1 mm 0 mps 691 mmHg 77%
    09:00 +22°C° 0.1 mm 1 mps 691 mmHg 66%
    10:00 +24°C° 0.1 mm 1 mps 692 mmHg 56%
    11:00 +25°C° 0.1 mm 1 mps 692 mmHg 54%
    12:00 +26°C° 0.1 mm 1 mps 692 mmHg 52%
    13:00 +26°C° 0.1 mm 1 mps 692 mmHg 50%
    14:00 +26°C° 0.1 mm 1 mps 691 mmHg 53%
    15:00 +25°C° 0.1 mm 1 mps 691 mmHg 56%
    16:00 +25°C° 0.1 mm 2 mps 691 mmHg 59%
    17:00 +23°C° 0.1 mm 1 mps 691 mmHg 66%
    18:00 +22°C° 0.1 mm 1 mps 691 mmHg 74%
    19:00 +20°C° 0.1 mm 1 mps 691 mmHg 81%
    20:00 +19°C° 0 mm 1 mps 691 mmHg 83%
    21:00 +18°C° 0 mm 1 mps 691 mmHg 84%
    22:00 +16°C° 0 mm 1 mps 691 mmHg 86%
    23:00 +15°C° 0 mm 1 mps 691 mmHg 87%

    20 July, Saturday

    Time Temperature Precipitation Wind Pressure Humidity
    00:00 +15°C° 0 mm 1 mps 691 mmHg 88%
    01:00 +15°C° 0 mm 1 mps 691 mmHg 89%
    02:00 +14°C° 0 mm 1 mps 691 mmHg 90%
    03:00 +14°C° 0 mm 1 mps 690 mmHg 90%
    04:00 +14°C° 0 mm 1 mps 690 mmHg 91%
    05:00 +14°C° 0 mm 0 mps 691 mmHg 86%
    06:00 +16°C° 0 mm 0 mps 691 mmHg 81%
    07:00 +18°C° 0 mm 0 mps 692 mmHg 77%
    08:00 +20°C° 0 mm 0 mps 692 mmHg 69%
    09:00 +22°C° 0 mm 0 mps 692 mmHg 62%
    10:00 +26°C° 0 mm 1 mps 693 mmHg 54%
    11:00 +27°C° 0 mm 1 mps 693 mmHg 52%
    12:00 +27°C° 0 mm 1 mps 693 mmHg 50%
    13:00 +28°C° 0 mm 2 mps 693 mmHg 48%
    14:00 +27°C° 0 mm 2 mps 693 mmHg 50%
    15:00 +27°C° 0 mm 2 mps 692 mmHg 53%
    16:00 +27°C° 0 mm 2 mps 692 mmHg 55%
    17:00 +25°C° 0 mm 2 mps 692 mmHg 64%
    18:00 +23°C° 0 mm 2 mps 692 mmHg 74%
    19:00 +21°C° 0 mm 1 mps 692 mmHg 83%
    20:00 +20°C° 0 mm 1 mps 692 mmHg 85%
    21:00 +19°C° 0 mm 1 mps 692 mmHg 87%
    22:00 +18°C° 0 mm 1 mps 692 mmHg 89%
    23:00 +16°C° 0 mm 1 mps 692 mmHg 89%

    21 July, Sunday

    Time Temperature Precipitation Wind Pressure Humidity
    00:00 +16°C° 0 mm 1 mps 692 mmHg 88%
    01:00 +16°C° 0 mm 1 mps 692 mmHg 87%
    02:00 +15°C° 0 mm 1 mps 692 mmHg 88%
    03:00 +15°C° 0 mm 1 mps 692 mmHg 89%
    04:00 +15°C° 0 mm 1 mps 692 mmHg 89%
    05:00 +18°C° 0 mm 1 mps 692 mmHg 84%
    06:00 +19°C° 0 mm 1 mps 693 mmHg 79%
    07:00 +18°C° 0 mm 0 mps 693 mmHg 73%
    08:00 +21°C° 0 mm 0 mps 694 mmHg 65%
    09:00 +25°C° 0 mm 1 mps 695 mmHg 57%
    10:00 +28°C° 0 mm 1 mps 695 mmHg 48%
    11:00 +29°C° 0 mm 1 mps 695 mmHg 45%
    12:00 +29°C° 0 mm 1 mps 695 mmHg 42%
    13:00 +30°C° 0 mm 1 mps 695 mmHg 40%
    14:00 +30°C° 0.1 mm 1 mps 695 mmHg 42%
    15:00 +29°C° 0.1 mm 1 mps 695 mmHg 45%
    16:00 +29°C° 0.1 mm 1 mps 695 mmHg 47%
    17:00 +27°C° 0.2 mm 1 mps 694 mmHg 59%
    18:00 +25°C° 0.2 mm 1 mps 694 mmHg 71%
    19:00 +23°C° 0.2 mm 1 mps 694 mmHg 83%
    20:00 +21°C° 0.5 mm 1 mps 694 mmHg 85%
    21:00 +20°C° 0.5 mm 1 mps 694 mmHg 87%
    22:00 +19°C° 0.5 mm 1 mps 694 mmHg 89%
    23:00 +18°C° 0.4 mm 1 mps 694 mmHg 90%

    22 July, Monday

    Time Temperature Precipitation Wind Pressure Humidity
    00:00 +18°C° 0.4 mm 1 mps 694 mmHg 91%
    01:00 +18°C° 0.4 mm 1 mps 694 mmHg 92%
    02:00 +18°C° 0.2 mm 1 mps 694 mmHg 92%
    03:00 +16°C° 0.2 mm 1 mps 694 mmHg 92%
    04:00 +16°C° 0.2 mm 1 mps 693 mmHg 93%
    05:00 +18°C° 0.4 mm 1 mps 694 mmHg 92%
    06:00 +19°C° 0.4 mm 1 mps 694 mmHg 92%
    07:00 +20°C° 0.4 mm 1 mps 694 mmHg 91%
    08:00 +21°C° 0.7 mm 1 mps 695 mmHg 87%
    09:00 +22°C° 0.7 mm 1 mps 695 mmHg 83%
    10:00 +24°C° 0.7 mm 1 mps 695 mmHg 79%
    11:00 +24°C° 0.9 mm 1 mps 695 mmHg 78%
    12:00 +25°C° 0.9 mm 1 mps 695 mmHg 77%
    13:00 +25°C° 0.9 mm 1 mps 694 mmHg 75%
    14:00 +25°C° 0.8 mm 1 mps 694 mmHg 76%
    15:00 +25°C° 0.8 mm 1 mps 694 mmHg 76%
    16:00 +25°C° 0.8 mm 1 mps 694 mmHg 77%
    17:00 +24°C° 0.4 mm 1 mps 693 mmHg 81%
    18:00 +21°C° 0.4 mm 0 mps 693 mmHg 86%
    19:00 +20°C° 0.4 mm 0 mps 693 mmHg 90%
    20:00 +19°C° 0.1 mm 0 mps 693 mmHg 92%
    21:00 +18°C° 0.1 mm 0 mps 693 mmHg 93%
    22:00 +16°C° 0.1 mm 0 mps 693 mmHg 95%
    23:00 +16°C° 0 mm 0 mps 693 mmHg 95%
    Show more